Simultaneous Nadir Overpasses (SNOs) Predictions

Prediction of SNOs between TERRA and METOP-C Satellite Orbit:

Table of predicted SNOs for the next 14.0 days since TLE Epoch: 7/8/2023
Index Date (TERRA) Time (TERRA) Lat,Lon (TERRA) SZA (TERRA ) Date (METOP-C) Time (METOP-C) Lat,Lon (METOP-C) SZA (METOP-C ) Distance(km) Time Diff (sec)
1 07/10/2023 16:26:38 -80.77, 144.97 120.13 07/10/2023 16:26:18 -80.77, 145.14 120.12 3.10 20
2 07/10/2023 17:15:58 80.80, -46.98 59.94 07/10/2023 17:16:56 80.80, -47.01 59.96 0.60 58
3 07/13/2023 07:48:00 80.73, 94.14 60.14 07/13/2023 07:47:15 80.73, 94.18 60.13 0.92 45
4 07/13/2023 08:37:21 -80.79, -97.49 119.74 07/13/2023 08:37:54 -80.79, -97.41 119.72 1.63 33
5 07/15/2023 23:09:24 -80.70, 43.49 119.51 07/15/2023 23:08:15 -80.70, 43.40 119.55 1.60 69
6 07/15/2023 23:58:43 80.76,-148.18 60.60 07/15/2023 23:58:51 80.77,-148.09 60.62 1.82 8
7 07/18/2023 15:20:06 -80.75, 161.35 118.98 07/18/2023 15:19:50 -80.75, 161.42 118.98 1.25 16
8 07/18/2023 16:09:25 80.81, -30.32 61.14 07/18/2023 16:10:27 80.80, -30.41 61.15 1.75 62
9 07/21/2023 06:41:27 80.72, 110.66 61.45 07/21/2023 06:40:47 80.72, 110.64 61.43 0.46 40



Historial Predications of SNOs between TERRA and METOP-C
